Home   Weather   Papenburg   Past weeks

Flag for Germany Past Weather in Papenburg, Lower Saxony, Germany — Yesterday and Last 2 Weeks

Now
50 °F

Overcast.


Feels Like: 47 °F
Forecast: 35 / 46 °F
Wind: 7 mph from West

Location: Emden-Koenigspolder

Current Time: Apr 24, 2017 at 5:32:22 pm

Latest Report: Apr 24, 2017 at 4:00 pm


Visibility: 13 mi

Pressure: 29.82 "Hg

Humidity: 87%

Dew Point: 46 °F

Location of PapenburgLocation

Weather Data Notice: We have recorded very few readings for this month, some days may be missing.

Past Weather in Papenburg — Graph

°F

Papenburg Temperature Yesterday

Maximum temperature yesterday: 47 °F (at 6:00 pm)
Minimum temperature yesterday: 40 °F (at 4:00 am)
Average temperature yesterday: 42 °F

High & Low Weather Summary for the Past Weeks

 TemperatureHumidityPressure
High55 °F (Apr 21, 1:00 pm)96% (Apr 20, 6:00 am)30.65 "Hg (Apr 20, 6:00 am)
Low27 °F (Apr 20, 6:00 am)45% (Apr 19, 1:00 pm)29.82 "Hg (Apr 24, 4:00 pm)
Average44 °F74%30.31 "Hg
* Reported Apr 19 9:00 am — Apr 24 4:00 pm, Papenburg, Weather by CustomWeather, © 2017

Note: Actual official high and low records may vary slightly from our data, if they occured in-between our weather recording intervals... More about our weather records

Advertising

Papenburg Weather History for the Previous 24 Hours

Scroll right to see more
 ConditionsComfort  
Time TempWeatherWind HumidityBarometerVisibility
4:00 pm
Mon, Apr 24
50 °FOvercast.7 mph87%29.82 "Hg12 mi
3:00 pm51 °FOvercast.9 mph82%29.83 "Hg25 mi
1:00 pm52 °FOvercast.8 mph69%29.85 "Hg28 mi
12:00 pm50 °FLight rain. Overcast.7 mph78%29.87 "Hg9 mi
10:00 am49 °FOvercast.7 mph71%29.89 "Hg6 mi
9:00 am46 °FOvercast.7 mph71%29.91 "Hg12 mi
7:00 am43 °FOvercast.7 mph77%29.94 "Hg14 mi
6:00 am42 °FOvercast.8 mph78%29.97 "Hg19 mi
5:00 amN/APassing clouds.12 mphN/AN/A3 mi
4:00 am42 °FOvercast.6 mph79%30.05 "Hg22 mi
3:00 am41 °FOvercast.5 mph78%30.08 "Hg25 mi
1:00 am41 °FPassing clouds.3 mph79%30.14 "Hg25 mi
12:00 am41 °FOvercast.2 mph78%30.16 "Hg25 mi
10:00 pm
Sun, Apr 23
40 °FPassing clouds.2 mph80%30.20 "Hg28 mi
9:00 pm41 °FOvercast.3 mph79%30.21 "Hg28 mi
7:00 pm47 °FPartly sunny.7 mph67%30.22 "Hg16 mi
6:00 pm47 °FPartly sunny.8 mph64%30.22 "Hg12 mi
Weather by CustomWeather, © 2017

See weather overviewHow to use our weather pages